User: anonymous   Login
Location: State Camp
(41.2367°N, 77.7828°W)
Time: 20:38:19
(UTC-04:00)
Language:

ADEOS Rocket - Orbit

View from above orbital plane
View from above orbital plane
View from above satellite
View from above satellite

Ground track
Ground track

The orbit data is extracted from the following two-line orbital elements,

1 24279U 96046C   15209.13937456  .00000011  00000-0  61850-4 0  9990
2 24279 098.6963 230.2256 0299104 249.3736 150.6334 13.47029575931341
Epoch (UTC): 28 July 2015 03:20:41
Eccentricity: 0.0299104
inclination: 98.6963°
perigee height: 860 km
apogee height: 1306 km
right ascension of ascending node: 230.2256°
argument of perigee: 249.3736°
revolutions per day: 13.47029575
mean anomaly at epoch: 150.6334°
orbit number at epoch: 93134

The dashed part of the orbit path shows where the satellite is in the earth's shadow,  

DLR